Bostic, NC

6:58 AM EST on February 20, 2017 (GMT -0500)
Rutherford County-Marchman

Weather History for KFQD - June, 2014

Change the Weather History Date:

Wednesday, June 4, 2014

  Actual Average (KAVL) Record (KAVL)
Temperature  
Mean Temperature 74 °F -  
Max Temperature 87 °F 77 °F 92 °F (1943)
Min Temperature 60 °F 56 °F 44 °F (1969)
Cooling Degree Days 8    
Growing Degree Days 24 (Base 50)    
Moisture  
Dew Point 64 °F    
Average Humidity 71    
Maximum Humidity 98    
Minimum Humidity 41    
Precipitation  
Precipitation 0.00 in - - ()
Sea Level Pressure  
Sea Level Pressure 29.93 in    
Wind  
Wind Speed 4 mph (WSW)    
Max Wind Speed 12 mph    
Max Gust Speed 17 mph    
Visibility 10 miles    
Events      
Averages and records for this station are not official NWS values.
T = Trace of Precipitation, MM = Missing Value Source: NWS Daily Summary

Daily Weather History Graph

Daily Weather History Graph

Search for Another Location

Airport or City:

Trip Planner

Search our weather history database for the weather conditions in past years. The results will help you decide how hot, cold, wet, or windy it might be!

Date:

Astronomy

Jun. 04, 2014 Rise Set
Actual Time 6:13 AM EDT 8:39 PM EDT
Civil Twilight 5:43 AM EDT 9:08 PM EDT
Nautical Twilight 5:07 AM EDT 9:45 PM EDT
Astronomical Twilight 4:26 AM EDT 10:25 PM EDT
Moon 12:21 PM EDT (6/4) 12:46 AM EDT (6/4)
Length of Visible Light 15h 25m
Length of Day
14h 26m
Waxing Crescent, 39% of the Moon is Illuminated
Jun 4
Waxing Crescent
Jun 5
First Quarter
Jun 13
Full
Jun 19
Last Quarter
Jun 27
New

Hourly Weather History & Observations

Time (EDT) Temp. Heat Index Dew Point Humidity Pressure Visibility Wind Dir Wind Speed Gust Speed Precip Events Conditions
12:15 AM 68.9 °F - 65.3 °F 88% 30.02 in 10.0 mi Calm Calm - N/A   Clear
12:35 AM 67.1 °F - 65.3 °F 94% 30.02 in 10.0 mi West 11.5 mph - N/A   Clear
12:55 AM 67.5 °F - 64.9 °F 92% 30.01 in 10.0 mi Calm Calm - N/A   Clear
1:15 AM 64.9 °F - 64.4 °F 98% 30.00 in 7.0 mi West 3.5 mph - N/A   Clear
1:35 AM 65.5 °F - 64.4 °F 96% 30.00 in 10.0 mi West 11.5 mph - N/A   Clear
1:55 AM 64.9 °F - 64.4 °F 98% 30.00 in 10.0 mi Calm Calm - N/A   Clear
2:15 AM 64.8 °F - 63.3 °F 95% 29.99 in 10.0 mi Calm Calm - N/A   Clear
2:35 AM 65.1 °F - 63.3 °F 94% 29.99 in 10.0 mi Calm Calm - N/A   Clear
2:55 AM 63.7 °F - 62.6 °F 96% 29.99 in 10.0 mi WNW 8.1 mph - N/A   Clear
3:15 AM 62.8 °F - 61.9 °F 97% 29.98 in 10.0 mi Calm Calm - N/A   Clear
3:35 AM 63.1 °F - 62.6 °F 98% 29.97 in 10.0 mi West 8.1 mph - N/A   Clear
3:55 AM 62.2 °F - 61.7 °F 98% 29.97 in 7.0 mi West 5.8 mph - N/A   Clear
4:15 AM 62.6 °F - 61.9 °F 97% 29.98 in 10.0 mi West 6.9 mph - N/A   Clear
4:35 AM 62.6 °F - 61.7 °F 97% 29.98 in 10.0 mi West 5.8 mph - N/A   Clear
4:55 AM 61.7 °F - 61.2 °F 98% 29.98 in 7.0 mi Calm Calm - N/A   Clear
5:15 AM 62.6 °F - 61.7 °F 97% 29.99 in 10.0 mi NW 6.9 mph - N/A   Clear
5:35 AM 61.9 °F - 60.6 °F 96% 29.99 in 10.0 mi West 5.8 mph - N/A   Clear
5:55 AM 61.9 °F - 61.0 °F 97% 29.99 in 10.0 mi NW 4.6 mph - N/A   Clear
6:15 AM 60.8 °F - 59.5 °F 96% 29.99 in 7.0 mi WNW 5.8 mph - N/A   Clear
6:35 AM 61.7 °F - 60.8 °F 97% 29.98 in 10.0 mi WNW 6.9 mph - N/A   Clear
6:55 AM 61.9 °F - 60.8 °F 96% 29.98 in 10.0 mi NW 4.6 mph - N/A   Clear
7:15 AM 62.6 °F - 61.2 °F 95% 29.99 in 10.0 mi WNW 4.6 mph - N/A   Clear
7:35 AM 64.4 °F - 61.9 °F 92% 29.99 in 10.0 mi WNW 4.6 mph - N/A   Clear
7:55 AM 66.9 °F - 62.2 °F 85% 30.00 in 10.0 mi NNW 6.9 mph - N/A   Clear
8:15 AM 68.2 °F - 63.0 °F 83% 30.00 in 10.0 mi Calm Calm - N/A   Clear
8:35 AM 69.1 °F - 63.5 °F 82% 29.99 in 10.0 mi Calm Calm - N/A   Clear
8:55 AM 72.0 °F - 63.9 °F 76% 29.99 in 10.0 mi Calm Calm - N/A   Clear
9:15 AM 74.1 °F - 64.9 °F 73% 30.00 in 10.0 mi NW 3.5 mph - N/A   Clear
9:35 AM 75.9 °F - 64.8 °F 68% 29.99 in 10.0 mi NNW 3.5 mph - N/A   Scattered Clouds
9:55 AM 77.4 °F - 64.8 °F 65% 29.99 in 10.0 mi Calm Calm - N/A   Scattered Clouds
10:15 AM 78.8 °F - 65.1 °F 63% 29.98 in 10.0 mi Calm Calm - N/A   Scattered Clouds
10:35 AM 79.0 °F - 63.0 °F 58% 29.99 in 10.0 mi NNW 5.8 mph - N/A   Clear
10:55 AM 81.5 °F 83.3 °F 64.9 °F 57% 29.99 in 10.0 mi West 4.6 mph - N/A   Clear
11:15 AM 81.1 °F 82.7 °F 63.9 °F 56% 29.99 in 10.0 mi Calm Calm - N/A   Clear
11:35 AM 81.1 °F 82.3 °F 62.6 °F 53% 29.99 in 10.0 mi Calm Calm - N/A   Clear
11:55 AM 82.6 °F 83.8 °F 63.1 °F 52% 29.99 in 10.0 mi Calm Calm - N/A   Clear
12:15 PM 82.0 °F 83.1 °F 62.6 °F 52% 29.99 in 10.0 mi Calm Calm - N/A   Clear
12:35 PM 83.8 °F 85.1 °F 64.2 °F 51% 29.98 in 10.0 mi Calm Calm - N/A   Clear
12:55 PM 84.0 °F 85.4 °F 64.2 °F 51% 29.97 in 10.0 mi SSW 3.5 mph - N/A   Clear
1:15 PM 84.2 °F 85.6 °F 64.4 °F 51% 29.97 in 10.0 mi South 3.5 mph - N/A   Clear
1:35 PM 84.9 °F 86.3 °F 64.2 °F 50% 29.95 in 10.0 mi Calm Calm - N/A   Clear
1:55 PM 86.2 °F 87.9 °F 64.8 °F 49% 29.94 in 10.0 mi Calm Calm - N/A   Clear
2:15 PM 86.4 °F 87.6 °F 64.2 °F 47% 29.92 in 10.0 mi SSW 5.8 mph - N/A   Clear
2:35 PM 86.5 °F 88.4 °F 65.1 °F 49% 29.92 in 10.0 mi South 6.9 mph - N/A   Scattered Clouds
2:55 PM 86.7 °F 87.8 °F 63.5 °F 46% 29.91 in 10.0 mi WNW 3.5 mph - N/A   Clear
3:15 PM 86.5 °F 87.6 °F 63.5 °F 46% 29.90 in 10.0 mi SW 6.9 mph - N/A   Scattered Clouds
3:35 PM 86.5 °F 87.0 °F 62.2 °F 44% 29.89 in 10.0 mi South 9.2 mph - N/A   Scattered Clouds
3:55 PM 87.3 °F 87.2 °F 61.0 °F 41% 29.87 in 10.0 mi WSW 5.8 mph - N/A   Scattered Clouds
4:15 PM 87.3 °F 88.0 °F 62.6 °F 44% 29.86 in 10.0 mi SSW 8.1 mph - N/A   Clear
4:35 PM 86.0 °F 85.7 °F 59.9 °F 41% 29.85 in 10.0 mi SSW 8.1 mph 17.3 mph N/A   Clear
5:15 PM 86.0 °F 86.8 °F 63.0 °F 46% 29.86 in 10.0 mi SW 8.1 mph - N/A   Clear
5:35 PM 86.7 °F 87.8 °F 63.7 °F 46% 29.86 in 10.0 mi SW 6.9 mph 16.1 mph N/A   Clear
5:55 PM 86.0 °F 87.1 °F 63.5 °F 47% 29.85 in 10.0 mi SW 9.2 mph - N/A   Scattered Clouds
6:15 PM 84.2 °F 85.4 °F 63.7 °F 50% 29.84 in 10.0 mi SSW 4.6 mph - N/A   Clear
6:35 PM 83.1 °F 84.8 °F 64.8 °F 54% 29.83 in 10.0 mi SW 3.5 mph - N/A   Clear
6:55 PM 82.9 °F 85.0 °F 65.7 °F 56% 29.83 in 10.0 mi SW 5.8 mph - N/A   Clear
7:15 PM 82.4 °F 84.6 °F 66.4 °F 58% 29.83 in 10.0 mi SW 3.5 mph - N/A   Clear
7:35 PM 81.9 °F 83.9 °F 65.7 °F 58% 29.84 in 10.0 mi SW 8.1 mph - N/A   Clear
7:55 PM 82.0 °F 83.8 °F 65.1 °F 56% 29.85 in 10.0 mi SW 5.8 mph - N/A   Clear
8:15 PM 81.0 °F 82.7 °F 64.9 °F 58% 29.84 in 10.0 mi SW 4.6 mph - N/A   Clear
8:35 PM 79.9 °F - 65.3 °F 61% 29.84 in 10.0 mi WSW 4.6 mph - N/A   Clear
8:55 PM 79.0 °F - 65.3 °F 63% 29.84 in 10.0 mi SW 3.5 mph - N/A   Clear
9:15 PM 78.6 °F - 65.3 °F 64% 29.85 in 10.0 mi WSW 4.6 mph - N/A   Clear
9:35 PM 77.5 °F - 65.3 °F 66% 29.85 in 10.0 mi Calm Calm - N/A   Clear
9:55 PM 77.9 °F - 65.5 °F 65% 29.86 in 10.0 mi Calm Calm - N/A   Clear
10:15 PM 77.0 °F - 66.0 °F 69% 29.85 in 10.0 mi Calm Calm - N/A   Scattered Clouds
10:35 PM 76.6 °F - 65.8 °F 69% 29.86 in 10.0 mi Calm Calm - N/A   Clear
10:55 PM 75.4 °F - 65.7 °F 72% 29.85 in 10.0 mi Calm Calm - N/A   Clear
11:15 PM 74.7 °F - 66.2 °F 75% 29.85 in 10.0 mi SSE 3.5 mph - N/A   Clear
11:35 PM 75.7 °F - 66.4 °F 73% 29.84 in 10.0 mi SW 3.5 mph - N/A   Clear
11:55 PM 75.6 °F - 66.6 °F 74% 29.85 in 10.0 mi Calm Calm - N/A   Clear